Back to catalog

COSMOS 1563

AliveMilitaryLEO
NORAD 15002·PAYLOAD·🇷🇺 Russia

Launched May 28, 1984 from Plesetsk Cosmodrome

Loading…

Next Passes (next 24 hours)

TLE

FreshSource: Space-Track

Epoch: Sep 14, 2026, 08:35 UTC

1 15002U 84052E   26257.35811583 -.00000001  00000-0  98387-4 0  9994
2 15002  74.0107 125.3100 0025003 256.8792 216.9040 12.51841491665364

Track COSMOS 1563 in real time with AllMySat

Download on the App Store